Tracking 31027 objects as of 19-Jul-2025
HD Live streaming from Space Station
objects crossing your sky now

SL-12 R/B(2)

Track SL-12 R/B(2) now!


NORAD ID: 26397
Int'l Code: 2000-036D
Perigee: 35,751.0 km
Apogee: 35,898.4 km
Inclination: 13.8 °
Period: 1,437.7 minutes
Semi major axis: 42195 km
RCS: 2.5119 m2 (large)
Launch date: July 4, 2000
Source: Commonwealth of Independent States (former USSR) (CIS)
Launch site: TYURATAM MISSILE AND SPACE COMPLEX (TTMTR)

Note: This is a ROCKET BODY
Your satellite tracking list
SPACEBEE-134
Track 1 satellite(s)




NASA's NSSDC Master Catalog

Two Line Element Set (TLE):
1 26397U 00036D   25199.63270645 -.00000363  00000-0  00000-0 0  9998
2 26397  13.7790   9.8195 0017463  74.2026 191.9420  1.00161533 43980
Source of the keplerian elements: AFSPC